EN

Hourly Weather Troice-Orlovka

Today, 17 April, Saturday

Time Temperature Precipitation Wind Pressure Humidity
00:00 +10°C° 0.1 mm 2 mps 745 mmHg 82%
01:00 +10°C° 0.1 mm 2 mps 745 mmHg 83%
02:00 +9°C° 0.1 mm 2 mps 745 mmHg 84%
03:00 +10°C° 0.1 mm 1 mps 745 mmHg 85%
04:00 +9°C° 0 mm 2 mps 745 mmHg 88%
05:00 +9°C° 0 mm 2 mps 745 mmHg 90%
06:00 +8°C° 0 mm 3 mps 745 mmHg 93%
07:00 +9°C° 0.1 mm 3 mps 745 mmHg 89%
08:00 +10°C° 0.1 mm 4 mps 745 mmHg 86%
09:00 +10°C° 0.1 mm 5 mps 745 mmHg 82%
10:00 +12°C° 0.4 mm 5 mps 745 mmHg 81%
11:00 +12°C° 0.4 mm 5 mps 745 mmHg 80%
12:00 +12°C° 0.4 mm 5 mps 744 mmHg 78%
13:00 +12°C° 0.8 mm 5 mps 744 mmHg 80%
14:00 +11°C° 0.8 mm 4 mps 745 mmHg 82%
15:00 +11°C° 0.8 mm 4 mps 745 mmHg 83%
16:00 +10°C° 0.9 mm 3 mps 745 mmHg 85%
17:00 +9°C° 0.9 mm 3 mps 745 mmHg 87%
18:00 +9°C° 0.9 mm 2 mps 744 mmHg 89%
19:00 +8°C° 0.4 mm 2 mps 745 mmHg 89%
20:00 +8°C° 0.4 mm 2 mps 745 mmHg 89%
21:00 +8°C° 0.4 mm 2 mps 745 mmHg 89%
22:00 +7°C° 0.1 mm 2 mps 745 mmHg 89%
23:00 +8°C° 0.1 mm 1 mps 745 mmHg 89%

Tomorrow, 18 April, Sunday

Time Temperature Precipitation Wind Pressure Humidity
00:00 +8°C° 0.1 mm 1 mps 745 mmHg 90%
01:00 +8°C° 0 mm 1 mps 745 mmHg 90%
02:00 +7°C° 0 mm 1 mps 745 mmHg 90%
03:00 +7°C° 0 mm 1 mps 745 mmHg 90%
04:00 +7°C° 0 mm 1 mps 745 mmHg 90%
05:00 +6°C° 0 mm 1 mps 745 mmHg 90%
06:00 +6°C° 0 mm 1 mps 745 mmHg 90%
07:00 +7°C° 0 mm 1 mps 746 mmHg 86%
08:00 +8°C° 0 mm 1 mps 746 mmHg 81%
09:00 +9°C° 0 mm 1 mps 746 mmHg 76%
10:00 +9°C° 0.4 mm 1 mps 746 mmHg 77%
11:00 +8°C° 0.4 mm 2 mps 746 mmHg 78%
12:00 +8°C° 0.4 mm 3 mps 746 mmHg 79%
13:00 +9°C° 0.2 mm 2 mps 746 mmHg 76%
14:00 +10°C° 0.2 mm 1 mps 746 mmHg 73%
15:00 +11°C° 0.2 mm 1 mps 746 mmHg 70%
16:00 +11°C° 0.1 mm 1 mps 746 mmHg 69%
17:00 +11°C° 0.1 mm 1 mps 746 mmHg 69%
18:00 +11°C° 0.1 mm 1 mps 746 mmHg 68%
19:00 +9°C° 0.2 mm 2 mps 746 mmHg 73%
20:00 +9°C° 0.2 mm 2 mps 747 mmHg 79%
21:00 +8°C° 0.2 mm 3 mps 747 mmHg 84%
22:00 +8°C° 0.1 mm 3 mps 747 mmHg 86%
23:00 +7°C° 0.1 mm 3 mps 747 mmHg 89%

Day after tomorrow, 19 April, Monday

Time Temperature Precipitation Wind Pressure Humidity
00:00 +7°C° 0.1 mm 3 mps 747 mmHg 91%
01:00 +7°C° 0.1 mm 3 mps 747 mmHg 92%
02:00 +5°C° 0.1 mm 3 mps 747 mmHg 93%
03:00 +5°C° 0.1 mm 3 mps 747 mmHg 94%
04:00 +5°C° 0.1 mm 3 mps 747 mmHg 94%
05:00 +5°C° 0.1 mm 3 mps 747 mmHg 94%
06:00 +5°C° 0.1 mm 4 mps 747 mmHg 95%
07:00 +5°C° 0 mm 4 mps 747 mmHg 91%
08:00 +6°C° 0 mm 4 mps 747 mmHg 88%
09:00 +7°C° 0 mm 5 mps 747 mmHg 85%
10:00 +7°C° 0.1 mm 5 mps 747 mmHg 80%
11:00 +8°C° 0.1 mm 5 mps 747 mmHg 76%
12:00 +9°C° 0.1 mm 6 mps 746 mmHg 71%
13:00 +9°C° 0.4 mm 6 mps 746 mmHg 72%
14:00 +9°C° 0.4 mm 6 mps 746 mmHg 73%
15:00 +9°C° 0.4 mm 6 mps 746 mmHg 74%
16:00 +8°C° 0.4 mm 6 mps 746 mmHg 77%
17:00 +8°C° 0.4 mm 7 mps 746 mmHg 81%
18:00 +6°C° 0.4 mm 7 mps 746 mmHg 85%
19:00 +6°C° 0.3 mm 7 mps 746 mmHg 86%
20:00 +5°C° 0.3 mm 7 mps 746 mmHg 88%
21:00 +5°C° 0.3 mm 7 mps 746 mmHg 89%
22:00 +4°C° 0.3 mm 7 mps 746 mmHg 89%
23:00 +4°C° 0.3 mm 7 mps 746 mmHg 89%

20 April, Tuesday

Time Temperature Precipitation Wind Pressure Humidity
00:00 +4°C° 0.3 mm 7 mps 745 mmHg 89%
01:00 +4°C° 0.4 mm 7 mps 745 mmHg 89%
02:00 +4°C° 0.4 mm 7 mps 745 mmHg 89%
03:00 +4°C° 0.4 mm 6 mps 744 mmHg 89%
04:00 +3°C° 0.4 mm 7 mps 744 mmHg 90%
05:00 +3°C° 0.4 mm 7 mps 744 mmHg 92%
06:00 +3°C° 0.4 mm 7 mps 743 mmHg 93%
07:00 +3°C° 0.5 mm 7 mps 743 mmHg 93%
08:00 +2°C° 0.5 mm 8 mps 743 mmHg 93%
09:00 +2°C° 0.5 mm 8 mps 742 mmHg 93%
10:00 +2°C° 0.3 mm 8 mps 742 mmHg 93%
11:00 +2°C° 0.3 mm 8 mps 741 mmHg 93%
12:00 +4°C° 0.3 mm 8 mps 741 mmHg 92%
13:00 +3°C° 0.8 mm 9 mps 740 mmHg 92%
14:00 +3°C° 0.8 mm 9 mps 739 mmHg 92%
15:00 +3°C° 0.8 mm 10 mps 738 mmHg 92%
16:00 +3°C° 2.6 mm 11 mps 737 mmHg 92%
17:00 +3°C° 2.6 mm 12 mps 736 mmHg 92%
18:00 +3°C° 2.6 mm 12 mps 735 mmHg 92%
19:00 +4°C° 1.5 mm 12 mps 734 mmHg 92%
20:00 +5°C° 1.5 mm 12 mps 734 mmHg 91%
21:00 +5°C° 1.5 mm 12 mps 733 mmHg 91%
22:00 +7°C° 0.4 mm 11 mps 733 mmHg 92%
23:00 +7°C° 0.4 mm 10 mps 732 mmHg 93%

21 April, Wednesday

Time Temperature Precipitation Wind Pressure Humidity
00:00 +7°C° 0.4 mm 10 mps 732 mmHg 93%
01:00 +7°C° 0.2 mm 9 mps 732 mmHg 91%
02:00 +7°C° 0.2 mm 8 mps 732 mmHg 88%
03:00 +7°C° 0.2 mm 8 mps 732 mmHg 86%
04:00 +6°C° 0.1 mm 8 mps 732 mmHg 86%
05:00 +6°C° 0.1 mm 8 mps 732 mmHg 86%
06:00 +6°C° 0.1 mm 8 mps 732 mmHg 87%
07:00 +5°C° 0.2 mm 8 mps 733 mmHg 89%
08:00 +4°C° 0.2 mm 8 mps 733 mmHg 91%
09:00 +2°C° 0.2 mm 8 mps 734 mmHg 92%
10:00 +2°C° 0 mm 8 mps 735 mmHg 88%
11:00 +4°C° 0 mm 8 mps 736 mmHg 85%
12:00 +4°C° 0 mm 8 mps 737 mmHg 81%
13:00 +5°C° 0 mm 8 mps 738 mmHg 78%
14:00 +6°C° 0 mm 8 mps 738 mmHg 75%
15:00 +6°C° 0 mm 8 mps 739 mmHg 72%
16:00 +8°C° 0 mm 7 mps 740 mmHg 71%
17:00 +8°C° 0 mm 7 mps 740 mmHg 69%
18:00 +8°C° 0 mm 7 mps 740 mmHg 68%
19:00 +7°C° 0 mm 6 mps 741 mmHg 72%
20:00 +7°C° 0 mm 5 mps 742 mmHg 77%
21:00 +6°C° 0 mm 4 mps 742 mmHg 81%
22:00 +5°C° 0 mm 4 mps 742 mmHg 83%
23:00 +5°C° 0 mm 4 mps 743 mmHg 84%

22 April, Thursday

Time Temperature Precipitation Wind Pressure Humidity
00:00 +5°C° 0 mm 4 mps 743 mmHg 86%
01:00 +4°C° 0 mm 4 mps 743 mmHg 87%
02:00 +4°C° 0 mm 4 mps 744 mmHg 88%
03:00 +4°C° 0 mm 4 mps 744 mmHg 89%
04:00 +4°C° 0 mm 3 mps 744 mmHg 89%
05:00 +3°C° 0 mm 3 mps 744 mmHg 90%
06:00 +3°C° 0 mm 3 mps 745 mmHg 90%
07:00 +5°C° 0 mm 4 mps 745 mmHg 85%
08:00 +6°C° 0 mm 4 mps 746 mmHg 80%
09:00 +8°C° 0 mm 5 mps 746 mmHg 75%
10:00 +9°C° 0 mm 5 mps 746 mmHg 70%
11:00 +10°C° 0 mm 5 mps 747 mmHg 64%
12:00 +13°C° 0 mm 5 mps 747 mmHg 59%
13:00 +13°C° 0.1 mm 5 mps 747 mmHg 55%
14:00 +14°C° 0.1 mm 5 mps 747 mmHg 52%
15:00 +14°C° 0.1 mm 5 mps 747 mmHg 49%
16:00 +14°C° 0.1 mm 5 mps 747 mmHg 53%
17:00 +14°C° 0.1 mm 4 mps 747 mmHg 56%
18:00 +13°C° 0.1 mm 4 mps 747 mmHg 60%
19:00 +12°C° 0 mm 3 mps 748 mmHg 65%
20:00 +11°C° 0 mm 3 mps 748 mmHg 70%
21:00 +10°C° 0 mm 2 mps 748 mmHg 75%
22:00 +9°C° 0.1 mm 2 mps 749 mmHg 77%
23:00 +9°C° 0.1 mm 2 mps 749 mmHg 80%
Show more

We Need Your Consent

Meteoprog and our Service Providers may store and access personal data such as cookies, device identifiers or other similar technologies on your device and process such data to personalise content and ads, as well as provide social media features and to analyse the traffic.

  • Store and/or access information on your device

    Cookies, device identifiers or other information can be stored or accessed on your device for the purposes indicated above.

  • Personalised ads and content, ad and content measurement, audience insights, and products development

    Ads and content can be personalised based on a profile. More data can be added to better personalise ads and content. Ad and content performance can be measured. Insights about the audience who saw the ads and content can be derived. Such data can be used to develop or improve user’s experience, systems and software.

By clicking ‘I Agree’ you will allow the use of indicated cookies, device identifiers, web beacons or other similar technologies. Your settings can be changed in the browser on your device.

For certain purposes, legitimate interests may be relied on, rather than consent. You can read more about this in our Privacy and Cookie Policy.